Regional Weather Roundup
Issued by NWS Kansas City/Pleasant Hill, MO

Home | Current Version | Previous Version | Text Only | Print | Product List | Glossary On
Versions: 1 2 3 4 5 6 7 8 9 10 11 12 13 14 15 16 17 18 19 20 21 22 23 24 25 26 27
000
ASUS43 KEAX 260510
RWREAX

WEATHER ROUNDUP FOR EASTERN KANSAS AND NORTHWEST MISSOURI
NATIONAL WEATHER SERVICE KANSAS CITY/PLEASANT HILL MO
1200 AM CDT TUE JUL 26 2016

KSZ040-057-103>105-MOZ028-029-037-043-260600-
...KANSAS CITY METROPOLITAN AREA...

CITY           SKY/WX    TMP DP  RH WIND       PRES   REMARKS
K.C. INTL      CLOUDY    77  69  76 NE6       30.07S
K.C. DOWNTOWN  CLOUDY    79  67  66 E6        30.04F
LEES SUMMIT    CLOUDY    77  71  82 NE5       30.06F
OLATHE - IXD   CLOUDY    76  68  76 E5        30.06F
OLATHE - OJC   PTCLDY    76  67  73 E5        30.06F
LAWRENCE       CLOUDY    75  67  76 NE5       30.05S

$$

MOZ001>008-011>017-020>025-030>033-038>040-044>046-053-054-260600-
...NORTHERN AND CENTRAL MISSOURI...

CITY           SKY/WX    TMP DP  RH WIND       PRES   REMARKS
ST. JOSEPH     CLEAR     70  68  93 N6        30.06F
MOSBY          PTCLDY    72  70  94 CALM      30.06S
WHITEMAN AFB   CLOUDY    74  74 100 E2        30.05S
CLINTON        CLOUDY    73  72  94 CALM      30.05S
SEDALIA        PTCLDY    74  71  91 CALM      30.07S
WARSAW         NOT AVBL
CHILLICOTHE      N/A     72  69  90 CALM      30.08S
KIRKSVILLE     CLOUDY    67  66  97 CALM      30.08S

$$

MOZ041-047>049-056>058-063>065-088>090-097-260600-
...EASTERN AND SOUTHERN MISSOURI...

CITY           SKY/WX    TMP DP  RH WIND       PRES   REMARKS
ST. LOUIS INTL CLOUDY    80  74  81 NW5       30.03
SPIRIT OF STL  CLOUDY    76  75  97 W3        30.02R
COLUMBIA       PTCLDY    71  70  96 N7        30.05F
JEFFERSON CITY CLEAR     72  70  93 W3        30.04S
ROLLA          PTCLDY    73  71  93 NE5       30.04F
OSAGE BEACH    CLOUDY    73  71  93 NE3       30.05F
SPRINGFIELD    CLEAR     76  71  85 E6        30.04F
BRANSON        PTCLDY    75  72  88 CALM      30.04F
JOPLIN         PTCLDY    75  73  93 NE5       30.03S
WEST PLAINS    LGT RAIN  75  72  90 N3        30.06F

$$

IAZ060-094-KSZ022-034>040-054-083-096-NEZ052-066-093-260600-
...KANSAS...SOUTHEAST NEBRASKA AND IOWA...

CITY           SKY/WX    TMP DP  RH WIND       PRES   REMARKS
TOPEKA         MOCLDY    75  67  76 CALM      30.05F
MANHATTAN      CLEAR     71  66  84 CALM      30.06S
EMPORIA        CLOUDY    74  72  93 E5        30.05F
CHANUTE        CLOUDY    76  73  91 NE5       30.03F
WICHITA        PTCLDY    77  71  82 E7        30.05R
OMAHA          CLEAR     75  66  73 SE6       30.08F
LINCOLN        CLEAR     71  64  78 CALM      30.10S
FALLS CITY     CLEAR     71  67  87 CALM      30.06F
LAMONI         PTCLDY    70  64  81 CALM      30.09S
DES MOINES     CLEAR     75  64  68 CALM      30.08S

$$





USA.gov is the U.S. government's official web portal to all federal, state and local government web resources and services.